Date,TemperatureHighF,TemperatureAvgF,TemperatureLowF,DewpointHighF,DewpointAvgF,DewpointLowF,HumidityHigh,HumidityAvg,HumidityLow,PressureMaxIn,PressureMinIn,WindSpeedMaxMPH,WindSpeedAvgMPH,GustSpeedMaxMPH,PrecipitationSumIn
2013-5-1,85.5,73.2,57.4,58.0,54.4,49.6,83,55,34,30.06,29.93,6,1,6,0.00
2013-5-2,75.0,63.2,46.2,58.9,52.8,41.8,85,70,49,30.14,30.03,9,2,9,0.36
2013-5-3,46.4,42.9,41.2,42.1,39.2,37.3,88,87,85,30.08,29.78,5,2,5,1.91
2013-5-4,52.7,46.0,40.8,43.2,39.5,37.3,88,78,61,29.97,29.81,4,0,4,0.06
2013-5-5,62.1,54.1,46.8,55.1,48.5,40.9,88,82,72,29.97,29.86,1,0,6,0.08
2013-5-6,68.5,61.7,53.6,53.3,51.0,47.9,85,69,53,29.97,29.88,2,0,7,0.00
2013-5-7,83.5,67.4,58.8,56.7,52.6,47.7,79,61,36,30.05,29.95,4,0,4,0.03
2013-5-8,81.5,68.4,53.8,56.8,50.8,44.0,84,58,28,30.03,29.94,5,0,5,0.03
2013-5-9,77.0,69.6,63.5,62.1,57.4,55.2,80,66,48,29.97,29.82,8,1,8,0.08
2013-5-10,68.0,62.8,56.8,59.3,54.9,48.3,86,76,66,29.98,29.81,7,1,7,0.06
2013-5-11,71.4,61.0,52.5,52.3,43.3,29.3,83,55,29,30.14,29.96,8,2,8,0.00
2013-5-12,68.5,53.6,42.4,59.2,28.9,23.8,72,41,23,30.22,29.89,6,1,6,0.00
2013-5-13,73.6,59.5,40.8,42.4,36.1,28.3,78,46,24,30.22,29.87,5,1,5,0.00
2013-5-14,91.9,75.0,53.4,54.5,48.7,42.0,74,43,24,30.02,29.77,16,2,16,0.00
2013-5-15,90.5,83.6,75.6,62.2,59.2,48.5,61,44,33,29.94,29.79,5,1,5,0.00
2013-5-16,82.2,73.8,68.0,64.8,59.8,54.6,76,62,42,29.93,29.83,9,1,9,0.00
2013-5-17,78.4,71.4,65.7,63.6,60.4,56.0,80,69,58,29.94,29.87,1,0,1,0.00
2013-5-18,82.9,73.8,63.1,65.4,63.2,59.5,90,71,53,29.99,29.85,4,0,4,0.00
2013-5-19,93.4,79.2,62.6,73.9,67.0,30.7,82,68,28,30.19,29.67,6,1,6,0.00
2013-5-20,79.9,71.5,55.4,69.0,63.5,28.4,89,77,30,30.20,29.66,8,1,8,0.72
2013-5-21,80.1,70.5,63.0,65.7,61.7,59.8,90,75,54,29.81,29.68,4,1,4,0.05
2013-5-22,75.7,69.2,63.0,60.9,56.5,47.7,85,65,48,29.86,29.66,7,1,7,0.00
2013-5-23,64.9,62.1,57.0,58.7,53.5,49.0,85,73,61,30.21,29.85,6,1,6,0.06
2013-5-24,71.2,60.3,48.7,49.4,41.6,35.0,82,54,30,30.40,30.20,4,1,4,0.00
2013-5-25,69.4,62.2,51.0,54.8,49.5,43.1,79,64,46,30.33,30.10,5,0,5,0.03
2013-5-26,84.4,71.5,57.6,66.0,58.1,49.1,75,63,52,30.18,29.98,8,1,8,0.00
2013-5-27,83.1,72.3,64.8,70.8,62.5,57.9,89,72,59,30.00,29.74,7,1,7,0.86
2013-5-28,85.1,74.0,65.8,69.3,64.6,61.5,90,74,53,29.88,29.78,4,1,6,0.03
2013-5-29,86.7,77.6,67.1,67.4,63.7,61.2,83,64,47,29.96,29.80,7,1,7,0.00
2013-5-30,81.8,75.3,64.4,70.8,66.4,58.3,90,74,56,29.91,29.69,7,1,8,0.67
2013-5-31,80.4,70.5,63.5,71.2,65.2,60.8,92,84,71,29.90,29.71,6,1,6,1.72